Regional Weather Roundup
Issued by NWS

Home | Current Version | Previous Version | Text Only | Print | Product List | Glossary On
Versions: 1 2 3 4 5 6 7 8 9 10 11 12 13 14 15 16 17 18 19 20 21 22 23 24 25 26 27 28 29 30 31 32 33 34 35 36 37 38 39 40 41 42 43 44 45 46 47 48 49 50
000
ASUS43 KMKX 310025
RWRWI

WISCONSIN REGIONAL WEATHER ROUNDUP
NATIONAL WEATHER SERVICE MILWAUKEE/SULLIVAN WI
700 PM CDT THU OCT 30 2014

NOTE: "FAIR" INDICATES FEW OR NO CLOUDS BELOW 12,000 FEET WITH NO
SIGNIFICANT WEATHER AND/OR OBSTRUCTIONS TO VISIBILITY.

WIZ001-002-006>008-014>016-023>028-310100-
NORTHWEST WISCONSIN

CITY           SKY/WX    TMP DP  RH WIND       PRES   REMARKS
SUPERIOR ARPT  CLOUDY    35  29  80 N18G38    30.21R WCI  24
6HR MIN TEMP:  34; 6HR MAX TEMP:  46;

ASHLAND        CLOUDY    38  33  82 NW13G22   30.12R WCI  30
6HR MIN TEMP:  38; 6HR MAX TEMP:  43; 6HR PCP:  0.01;

HAYWARD        CLOUDY    37  33  85 NW6       30.12R WCI  32
6HR MIN TEMP:  37; 6HR MAX TEMP:  43; 6HR PCP: TRACE;

SIREN          DRIZZLE   39  31  71 N14       30.18R WCI  31
6HR MIN TEMP:  39; 6HR MAX TEMP:  43;

CUMBERLAND     CLOUDY    37  32  81 NW14G25   30.14R WCI  29
RICE LAKE      CLOUDY    41  31  67 NW8       30.15R
6HR MIN TEMP:  41; 6HR MAX TEMP:  45;

CHETEK         CLOUDY    41  33  71 NW7       30.13R
6HR MIN TEMP:  41; 6HR MAX TEMP:  45;

LADYSMITH      CLOUDY    41  33  72 NW12      30.12R
6HR MIN TEMP:  41; 6HR MAX TEMP:  43;

EAU CLAIRE     CLOUDY    42  31  64 NW8       30.13R
6HR MIN TEMP:  42; 6HR MAX TEMP:  49;

MENOMONIE      CLOUDY    43  32  65 NW10G17   30.15R
6HR MIN TEMP:  43; 6HR MAX TEMP:  49;

NEW RICHMOND   CLOUDY    42  31  66 NW13G20   30.18R
6HR MIN TEMP:  42; 6HR MAX TEMP:  47;

OSCEOLA        CLOUDY    41  31  67 NW17G30   30.22R
6HR MIN TEMP:  41; 6HR MAX TEMP:  46;

$$

WIZ003>005-009-010-017-018-310100-
NORTH CENTRAL WISCONSIN

CITY           SKY/WX    TMP DP  RH WIND       PRES   REMARKS
MANITOWISH WTR CLOUDY    37  32  84 W6        30.04R WCI  32
6HR MIN TEMP:  36; 6HR MAX TEMP:  39;

ARBOR VITAE    PTCLDY    39  32  76 NW7       30.04R WCI  34
6HR MIN TEMP:  39; 6HR MAX TEMP:  42;

WOODRUFF       PTCLDY    39  32  76 NW7       30.04R WCI  34
6HR MIN TEMP:  39; 6HR MAX TEMP:  42;

RHINELANDER    CLOUDY    38  30  73 NW10      30.04R WCI  31
6HR MIN TEMP:  38; 6HR MAX TEMP:  41;

EAGLE RIVER    CLOUDY    37  31  79 W8        30.02S WCI  31
6HR MIN TEMP:  37; 6HR MAX TEMP:  40;

LAND O LAKES   CLOUDY    37  33  89 W5        30.02S WCI  33
6HR MIN TEMP:  37; 6HR MAX TEMP:  39;

PHILLIPS       CLOUDY    37  32  84 NW3       30.06S
6HR MIN TEMP:  37; 6HR MAX TEMP:  41;

TOMAHAWK       CLOUDY    39  31  71 NW8       30.06R WCI  34
6HR MIN TEMP:  39; 6HR MAX TEMP:  42;

MEDFORD        CLOUDY    39  33  77 NW9       30.06S WCI  33
6HR MIN TEMP:  39; 6HR MAX TEMP:  42;

MERRILL        CLOUDY    41  32  69 NW10      30.05R
6HR MIN TEMP:  41; 6HR MAX TEMP:  45;

$$

WIZ029-030-035-036-043>047-310100-
CENTRAL WISCONSIN

CITY           SKY/WX    TMP DP  RH WIND       PRES   REMARKS
WAUSAU         CLOUDY    42  33  70 NW13      30.04R
6HR MIN TEMP:  42; 6HR MAX TEMP:  45;

MOSINEE        CLOUDY    41  36  81 NW13      30.06R
MARSHFIELD     CLOUDY    44  35  70 NW18G24   30.06R
6HR MIN TEMP:  44; 6HR MAX TEMP:  48;

STEVENS POINT  CLOUDY    42  32  68 NW10G20   30.05R
6HR MIN TEMP:  42; 6HR MAX TEMP:  46; 6HR PCP:  0.01;

WAUPACA        CLOUDY    48  34  58 W6        30.03F
6HR MIN TEMP:  48; 6HR MAX TEMP:  52;

WAUTOMA        CLOUDY    48  36  63 NW6       30.05R
6HR MIN TEMP:  48; 6HR MAX TEMP:  52;

WISC RAPIDS    CLOUDY    45  34  65 NW8       30.07R
6HR MIN TEMP:  45; 6HR MAX TEMP:  51;

CAMP DOUGLAS   CLOUDY    45  41  87 W7        30.07R
                                      6HR PCP: TRACE;

$$

WIZ011>013-019>022-031-037>040-048>050-310100-
NORTHEAST WISCONSIN

CITY           SKY/WX    TMP DP  RH WIND       PRES   REMARKS
ANTIGO         CLOUDY    40  32  75 NW10      30.03R WCI  33
6HR MIN TEMP:  40; 6HR MAX TEMP:  44;

SHAWANO        CLOUDY    47  35  63 W3        30.03R
6HR MIN TEMP:  45; 6HR MAX TEMP:  49;

OCONTO         CLOUDY    45  34  64 NW8       30.01R
6HR MIN TEMP:  45; 6HR MAX TEMP:  47;

STURGEON BAY   CLOUDY    45  34  65 W5        30.00F
6HR MIN TEMP:  45; 6HR MAX TEMP:  45;

GREEN BAY      CLOUDY    46  37  71 W6        30.02R
6HR MIN TEMP:  46; 6HR MAX TEMP:  48;

MANITOWOC      CLOUDY    47  37  68 W6        30.02S
6HR MIN TEMP:  47; 6HR MAX TEMP:  50;

APPLETON       MOCLDY    46  34  61 W8        30.02S
CLINTONVILLE   CLOUDY    45  32  61 W8        30.03R
OSHKOSH        CLOUDY    47  37  68 W3        30.02S
6HR MIN TEMP:  47; 6HR MAX TEMP:  50;

$$

WIZ032>034-041-042-053>061-310100-
SOUTHWEST WISCONSIN

CITY           SKY/WX    TMP DP  RH WIND       PRES   REMARKS
LA CROSSE      CLOUDY    45  38  76 CALM      30.09S
6HR MIN TEMP:  45; 6HR MAX TEMP:  47; 6HR PCP: TRACE;

SPARTA         CLOUDY    44  36  73 W5        30.09R
6HR MIN TEMP:  44; 6HR MAX TEMP:  47;

VIROQUA        CLOUDY    42  37  80 CALM      30.08R
6HR MIN TEMP:  42; 6HR MAX TEMP:  45;

BOSCOBEL       CLOUDY    49  37  63 CALM      30.09S
6HR MIN TEMP:  49; 6HR MAX TEMP:  51;

PRAIRIE DU CHI CLOUDY    47  38  70 NW5       30.10R
6HR MIN TEMP:  47; 6HR MAX TEMP:  49;

PLATTEVILLE    MOCLDY    46  39  75 NW5       30.09R
6HR MIN TEMP:  46; 6HR MAX TEMP:  49;

$$

WIZ056-057-062-063-064-067-068-310100-
SOUTH CENTRAL WISCONSIN

CITY           SKY/WX    TMP DP  RH WIND       PRES   REMARKS
REEDSBURG      CLOUDY    45  37  72 W3        30.06S
6HR MIN TEMP:  45; 6HR MAX TEMP:  47;

BARABOO/DELLS  CLOUDY    45  35  68 W3        30.06S
6HR MIN TEMP:  45; 6HR MAX TEMP:  48;

LONE ROCK      CLOUDY    51  37  58 W3        30.08R
6HR MIN TEMP:  51; 6HR MAX TEMP:  53;

MINERAL POINT  CLOUDY    46  37  71 W3        30.07S
MADISON        CLOUDY    46  35  65 CALM      30.06R
6HR MIN TEMP:  45; 6HR MAX TEMP:  51; 6HR PCP: TRACE;

MIDDLETON      CLOUDY    44  37  74 CALM      30.06S
6HR MIN TEMP:  43; 6HR MAX TEMP:  52;

WATERTOWN      CLOUDY    46  36  68 W3        30.05R
6HR MIN TEMP:  46; 6HR MAX TEMP:  50;

MONROE         MOCLDY    46  36  66 NW5       30.06S
JANESVILLE     CLOUDY    48  36  61 W5        30.06R
$$

WIZ051-052-058>065-066-070>072-310100-
SOUTHEAST WISCONSIN

CITY           SKY/WX    TMP DP  RH WIND       PRES   REMARKS
MILWAUKEE      MOCLDY    49  33  54 W6        30.05S
6HR MIN TEMP:  49; 6HR MAX TEMP:  51;

WAUKESHA       CLOUDY    45  34  65 SW8       30.05S
MILWAUKEE/TIMM NOT AVBL
RACINE         CLOUDY    49  34  56 W3        30.06S
6HR MIN TEMP:  48; 6HR MAX TEMP:  52;

BURLINGTON     CLOUDY    44  33  65 W3        30.05S
6HR MIN TEMP:  44; 6HR MAX TEMP:  50;

KENOSHA        MOCLDY    46  35  65 W5        30.05S
6HR MIN TEMP:  46; 6HR MAX TEMP:  52;

FOND DU LAC    CLOUDY    46  35  65 SW6       30.03S
6HR MIN TEMP:  46; 6HR MAX TEMP:  51;

SHEBOYGAN      CLOUDY    45  36  70 W6        30.03R
6HR MIN TEMP:  45; 6HR MAX TEMP:  50;

WEST BEND      CLOUDY    45  32  61 W3        30.03S
JUNEAU         CLOUDY    46  36  68 W6        30.05S
6HR MIN TEMP:  44; 6HR MAX TEMP:  48;

$$

LSZ147-162-310100-
LAKE SUPERIOR

STATION/POSITION TIME  TEMP    WIND        PRES    WAVE
                       AIR SEA DIR/SP/G            HT/PER
                 (UTC) (F)     (DEG/KT/KT) (MB)    (FT/S)
W MID LAKE BUOY  2350   40 45  340/ 19/ 23 1018.1R   3/ 4
DEVILS ISLAND    0000   39     310/ 29/ 32 1020.2R
PORT WING        2314   42     310/ 22/ 26 1020.3R
SAXON HARBOR     0008   41     310/ 17/ 25 1019.0R
$$

LMZ867-665-643>646-310100-
LAKE MICHIGAN




USA.gov is the U.S. government's official web portal to all federal, state and local government web resources and services.